TimeEST,TemperatureF,Dew PointF,Humidity,Sea Level PressureIn,VisibilityMPH,Wind Direction,Wind SpeedMPH,Gust SpeedMPH,PrecipitationIn,Events,Conditions,WindDirDegrees,DateUTC
12:09 AM,42.8,41.0,93,29.99,1.8,Calm,Calm,-,N/A,,Overcast,0,2013-01-14 05:09:00
12:17 AM,42.8,42.8,100,29.99,0.8,Calm,Calm,-,N/A,,Overcast,0,2013-01-14 05:17:00
12:21 AM,42.8,41.0,93,29.99,1.2,Calm,Calm,-,N/A,,Overcast,0,2013-01-14 05:21:00
12:26 AM,44.6,42.8,93,29.98,2.0,Calm,Calm,-,N/A,,Overcast,0,2013-01-14 05:26:00
12:34 AM,44.6,42.8,93,29.98,5.0,Calm,Calm,-,N/A,,Overcast,0,2013-01-14 05:34:00
12:42 AM,42.8,42.8,100,29.98,1.8,Calm,Calm,-,N/A,,Overcast,0,2013-01-14 05:42:00
12:46 AM,42.8,42.8,100,29.98,0.8,Calm,Calm,-,N/A,,Overcast,0,2013-01-14 05:46:00
12:52 AM,43.0,41.0,93,29.99,0.5,Calm,Calm,-,N/A,Fog,Fog,0,2013-01-14 05:52:00
1:01 AM,44.6,42.8,93,29.97,3.0,SW,4.6,-,N/A,,Overcast,230,2013-01-14 06:01:00
1:52 AM,48.0,46.0,93,29.99,10.0,Calm,Calm,-,N/A,,Overcast,0,2013-01-14 06:52:00
2:15 AM,46.4,44.6,93,29.98,1.5,Calm,Calm,-,N/A,,Overcast,0,2013-01-14 07:15:00
2:52 AM,43.0,42.1,97,29.98,0.5,Calm,Calm,-,N/A,Fog,Fog,0,2013-01-14 07:52:00
3:10 AM,46.4,46.4,100,29.96,9.0,SSE,4.6,-,N/A,,Overcast,160,2013-01-14 08:10:00
4:52 AM,46.9,45.0,93,29.95,10.0,SSW,5.8,-,N/A,,Overcast,210,2013-01-14 09:52:00
5:04 AM,48.2,46.4,93,29.92,10.0,South,3.5,-,N/A,,Overcast,180,2013-01-14 10:04:00
5:52 AM,48.0,46.0,93,29.94,10.0,SSW,4.6,-,N/A,,Overcast,210,2013-01-14 10:52:00
6:34 AM,48.2,46.4,93,29.88,10.0,South,8.1,-,0.00,,Mostly Cloudy,190,2013-01-14 11:34:00
6:52 AM,48.9,46.9,93,29.87,10.0,Variable,4.6,-,0.00,,Mostly Cloudy,0,2013-01-14 11:52:00
7:52 AM,52.0,48.0,86,29.93,10.0,Calm,Calm,-,N/A,,Mostly Cloudy,0,2013-01-14 12:52:00
8:52 AM,52.0,48.0,86,29.97,10.0,West,4.6,-,N/A,,Overcast,260,2013-01-14 13:52:00
9:19 AM,51.8,48.2,88,29.98,10.0,Calm,Calm,-,N/A,,Mostly Cloudy,0,2013-01-14 14:19:00
9:52 AM,54.0,48.0,80,30.00,10.0,West,8.1,-,N/A,,Overcast,260,2013-01-14 14:52:00
10:20 AM,53.6,48.2,82,30.00,10.0,WNW,3.5,-,N/A,,Scattered Clouds,290,2013-01-14 15:20:00
10:52 AM,55.0,46.9,74,30.00,10.0,WSW,9.2,-,N/A,,Clear,250,2013-01-14 15:52:00
11:52 AM,55.9,46.0,69,29.99,10.0,West,6.9,-,N/A,,Clear,270,2013-01-14 16:52:00
12:52 PM,57.9,42.1,56,30.01,10.0,West,17.3,20.7,0.01,,Clear,280,2013-01-14 17:52:00
1:52 PM,55.9,34.0,44,30.05,10.0,WNW,12.7,23.0,N/A,,Clear,290,2013-01-14 18:52:00
2:52 PM,53.1,32.0,45,30.09,10.0,NW,17.3,26.5,N/A,,Clear,310,2013-01-14 19:52:00
3:52 PM,50.0,33.1,52,30.12,10.0,NW,10.4,17.3,N/A,,Clear,310,2013-01-14 20:52:00
4:52 PM,46.9,30.9,54,30.14,10.0,WNW,6.9,-,N/A,,Clear,300,2013-01-14 21:52:00
5:52 PM,43.0,30.9,62,30.14,10.0,Calm,Calm,-,N/A,,Clear,0,2013-01-14 22:52:00
6:52 PM,39.0,30.0,70,30.17,10.0,NW,3.5,-,N/A,,Clear,310,2013-01-14 23:52:00
7:52 PM,42.1,28.0,58,30.20,10.0,NW,5.8,-,N/A,,Clear,320,2013-01-15 00:52:00
8:52 PM,41.0,28.0,60,30.22,10.0,WNW,5.8,-,N/A,,Partly Cloudy,300,2013-01-15 01:52:00
9:52 PM,39.9,27.0,60,30.22,10.0,WNW,6.9,-,N/A,,Clear,300,2013-01-15 02:52:00
11:52 PM,39.0,24.1,55,30.27,10.0,WNW,10.4,-,N/A,,Clear,290,2013-01-15 04:52:00